Cairo, Egypt

7:13 PM EET on September 21, 2017 (GMT +0200)
Cairo International Airport

Weather History for HECA - May, 2013

Change the Weather History Date:

Saturday, May 4, 2013

  Actual Average Record
Temperature  
Mean Temperature 81 °F -  
Max Temperature 96 °F 88 °F 103 °F (2014)
Min Temperature 66 °F 65 °F 60 °F (1997)
Cooling Degree Days 16    
Growing Degree Days 31 (Base 50)    
Moisture  
Dew Point 52 °F    
Average Humidity 46    
Maximum Humidity 83    
Minimum Humidity 10    
Precipitation  
Precipitation 0.00 in 0.00 in - ()
Sea Level Pressure  
Sea Level Pressure 29.83 in    
Wind  
Wind Speed 9 mph ()    
Max Wind Speed 23 mph    
Max Gust Speed -    
Visibility 2.3 miles    
Events      
Averages and records for this station are not official NWS values.
T = Trace of Precipitation, MM = Missing Value Source: Averaged Metar Reports

Daily Weather History Graph

Daily Weather History Graph

Search for Another Location

Airport or City:

Trip Planner

Search our weather history database for the weather conditions in past years. The results will help you decide how hot, cold, wet, or windy it might be!

Date:

Astronomy

May. 04, 2013 Rise Set
Actual Time 5:08 AM EET 6:33 PM EET
Civil Twilight 4:43 AM EET 6:59 PM EET
Nautical Twilight 4:12 AM EET 7:30 PM EET
Astronomical Twilight 3:41 AM EET 8:01 PM EET
Moon 1:31 AM EET (5/4) 1:32 PM EET (5/4)
Length of Visible Light 14h 16m
Length of Day
13h 25m
Waning Crescent, 29% of the Moon is Illuminated
May 4
Waning Crescent
May 10
New
May 18
First Quarter
May 25
Full
May 31
Last Quarter

Hourly Weather History & Observations

Time (EET) Temp. Heat Index Dew Point Humidity Pressure Visibility Wind Dir Wind Speed Gust Speed Precip Events Conditions
12:00 AM 73.4 °F - 55.4 °F 53% 29.80 in - North 8.1 mph - N/A   Clear
12:30 AM 73.4 °F - 55.4 °F 53% 29.80 in - North 8.1 mph - N/A   Clear
1:00 AM 71.6 °F - 57.2 °F 60% 29.80 in - NNW 6.9 mph - N/A   Clear
1:30 AM 71.6 °F - 57.2 °F 60% 29.80 in - NNW 6.9 mph - N/A   Clear
2:00 AM 70 °F - 60 °F 62% 29.82 in 6 mi NNW 9.2 mph - -  
2:00 AM 69.8 °F - 60.8 °F 73% 29.80 in - NNW 9.2 mph - N/A   Clear
2:30 AM 68.0 °F - 60.8 °F 78% 29.80 in - NNW 9.2 mph - N/A   Clear
3:00 AM 68.0 °F - 60.8 °F 78% 29.80 in 3.7 mi North 9.2 mph - N/A   Unknown
3:30 AM 68.0 °F - 60.8 °F 78% 29.80 in 2.5 mi North 6.9 mph - N/A   Mist
4:00 AM 68.0 °F - 60.8 °F 78% 29.80 in 1.2 mi North 6.9 mph - N/A   Mist
4:30 AM 66.2 °F - 60.8 °F 83% 29.83 in 1.2 mi NE 4.6 mph - N/A   Mist
5:00 AM 66.2 °F - 60.8 °F 83% 29.83 in 1.2 mi NNE 2.3 mph - N/A   Mist
5:30 AM 68.0 °F - 62.6 °F 83% 29.83 in 0.9 mi Calm Calm - N/A   Mist
6:00 AM 68.0 °F - 62.6 °F 83% 29.86 in 0.9 mi NW 4.6 mph - N/A   Mist
6:30 AM 68.0 °F - 62.6 °F 83% 29.86 in 0.9 mi NNW 8.1 mph - N/A   Mist
7:00 AM 68.0 °F - 62.6 °F 83% 29.86 in 0.9 mi NNW 6.9 mph - N/A   Mist
7:30 AM 68.0 °F - 62.6 °F 83% 29.86 in 0.9 mi NNW 8.1 mph - N/A   Mist
8:00 AM 69 °F - 63 °F 75% 29.88 in 1 mi North 6.9 mph - -   Mist
8:00 AM 68.0 °F - 62.6 °F 83% 29.86 in 1.2 mi North 6.9 mph - N/A   Mist
8:30 AM 71.6 °F - 62.6 °F 73% 29.86 in 1.2 mi NNE 8.1 mph - N/A   Mist
9:00 AM 73.4 °F - 62.6 °F 69% 29.86 in 1.2 mi NNE 6.9 mph - N/A   Mist
9:30 AM 75.2 °F - 62.6 °F 65% 29.86 in 2.5 mi NNE 8.1 mph - N/A   Haze
10:00 AM 77.0 °F - 62.6 °F 61% 29.86 in 2.5 mi NNE 6.9 mph - N/A   Haze
10:30 AM 80.6 °F 81.8 °F 62.6 °F 54% 29.86 in 3.7 mi North 6.9 mph - N/A   Unknown
11:00 AM 82.4 °F 82.9 °F 60.8 °F 48% 29.86 in - North 9.2 mph - N/A   Clear
11:30 AM 84.2 °F 83.5 °F 57.2 °F 40% 29.86 in - North 9.2 mph - N/A   Clear
12:00 PM 87.8 °F 86.1 °F 55.4 °F 33% 29.86 in - North 11.5 mph - N/A   Clear
12:30 PM 89.6 °F 87.3 °F 53.6 °F 29% 29.86 in - North 10.4 mph - N/A   Clear
1:00 PM 91.4 °F - 48.2 °F 23% 29.83 in - NNE 12.7 mph - N/A   Clear
1:30 PM 95.0 °F - 44.6 °F 18% 29.83 in - NE 12.7 mph - N/A   Clear
2:00 PM 94 °F - 43 °F 10% 29.81 in 6 mi NE 13.8 mph - -  
2:00 PM 95.0 °F - 42.8 °F 16% 29.80 in - NE 13.8 mph - N/A   Clear
2:30 PM 95.0 °F - 37.4 °F 13% 29.80 in - NE 12.7 mph - N/A   Clear
3:00 PM 96.8 °F - 35.6 °F 12% 29.80 in - NE 13.8 mph - N/A   Clear
3:30 PM 96.8 °F - 37.4 °F 13% 29.80 in - NNE 19.6 mph - N/A   Clear
4:00 PM 95.0 °F - 35.6 °F 12% 29.77 in - NNE 19.6 mph - N/A   Clear
4:30 PM 95.0 °F - 33.8 °F 12% 29.77 in - NNE 20.7 mph - N/A   Clear
5:00 PM 95.0 °F - 35.6 °F 12% 29.77 in - NNE 20.7 mph - N/A   Clear
5:30 PM 93.2 °F - 35.6 °F 13% 29.77 in - NNE 23.0 mph - N/A   Clear
6:00 PM 91.4 °F - 35.6 °F 14% 29.80 in - NNE 20.7 mph - N/A   Clear
6:30 PM 89.6 °F - 41.0 °F 18% 29.80 in - NNE 20.7 mph - N/A   Clear
7:00 PM 87.8 °F - 39.2 °F 18% 29.80 in - NNE 20.7 mph - N/A   Clear
7:30 PM 86.0 °F - 39.2 °F 19% 29.83 in - NNE 18.4 mph - N/A   Clear
8:00 PM 84 °F - 43 °F 14% 29.84 in 6 mi NNE 17.3 mph - -  
8:00 PM 84.2 °F - 42.8 °F 23% 29.86 in - NNE 17.3 mph - N/A   Clear
8:30 PM 80.6 °F - 46.4 °F 30% 29.86 in - NNE 18.4 mph - N/A   Clear
9:00 PM 78.8 °F - 46.4 °F 32% 29.86 in - NE 16.1 mph - N/A   Clear
9:30 PM 77.0 °F - 46.4 °F 34% 29.86 in - NNE 12.7 mph - N/A   Clear
10:00 PM 77.0 °F - 44.6 °F 32% 29.89 in - NNE 11.5 mph - N/A   Clear
10:30 PM 77.0 °F - 44.6 °F 32% 29.89 in - NNE 11.5 mph - N/A   Clear
11:00 PM 75.2 °F - 46.4 °F 36% 29.89 in - NNE 11.5 mph - N/A   Clear
11:30 PM 75.2 °F - 46.4 °F 36% 29.89 in - NNE 11.5 mph - N/A   Clear